RH
87 80 76 77 74 74 71 60 55 67 84 84 96 87 89 90 86 81 85 85 87 88 84 82 83 85 80 70 49 50 81 74 89 86 89 82 71 68
100 94 82 81 85 87 80 77 66 56 65 73 96 77 92 89 93 89 90 99 90 85 85 85 85 82 64 44 41 49 69 79 99 96 94 91 77 71
100 100 97 92 93 95 94 94 80 66 68 80 86 93 94 96 97 99 99 98 98 92 88 85 82 68 49 46 46 60 58 95 95 86 93 95 90 76
99 100 100 100 100 99 100 98 89 77 72 67 96 97 99 98 99 100 100 100 100 97 93 86 75 60 53 50 52 72 76 99 93 88 88 93 91 80
96 100 100 100 100 100 100 99 98 86 80 71 86 100 100 100 100 100 100 100 100 97 89 82 72 60 54 56 66 79 82 99 97 91 94 91 92 90
93 94 99 99 100 100 100 100 98 93 89 80 90 99 100 100 100 100 100 100 100 97 90 84 73 63 61 62 67 72 76 79 93 96 97 98 99 98
83 84 91 92 97 95 99 100 100 100 94 90 89 99 99 99 99 99 100 100 100 98 93 88 75 64 61 67 64 67 71 80 87 87 92 94 92 94
88 90 93 97 100 100 100 100 100 100 97 94 93 94 95 96 100 100 99 100 97 98 98 89 79 70 73 80 67 67 68 76 85 87 91 92 92 97
100 99 100 100 100 100 100 100 100 99 95 97 95 97 92 95 97 100 100 98 93 90 98 91 88 83 76 77 72 70 74 96 98 100 100 98 93 96
100 99 99 100 100 99 100 98 100 100 99 100 99 98 97 94 96 92 97 100 99 95 91 94 90 86 84 76 72 77 90 99 99 100 100 100 100 100
100 100 100 100 100 100 100 100 100 100 99 100 100 99 100 100 98 100 100 100 100 99 99 85 92 88 91 93 88 86 100 100 100 100 100 100 100 100
96 95 92 96 96 99 99 100 100 99 100 99 100 100 100 100 100 100 100 99 97 99 96 92 97 92 97 91 86 86 92 100 100 99 100 100 100 100
96 94 91 94 92 91 96 98 100 100 99 100 100 100 100 100 100 100 100 100 99 93 88 94 95 98 94 100 100 90 87 97 100 100 100 100 100 99
97 97 96 91 86 85 88 90 92 96 98 99 100 100 100 100 99 100 100 100 100 99 90 97 91 88 88 99 98 92 79 92 98 99 100 100 100 100
94 98 99 98 98 98 98 92 90 96 100 100 100 99 98 99 100 100 100 100 100 99 95 98 80 83 75 76 88 98 96 86 81 98 100 100 99 100
86 84 85 83 81 81 81 84 90 90 100 100 100 100 100 100 100 100 100 100 100 100 100 100 87 82 80 64 55 94 85 80 81 74 71 74 81 92
80 78 80 82 86 90 90 88 87 90 76 92 100 100 100 100 100 99 100 99 98 99 100 100 100 96 93 78 70 68 72 65 61 68 67 69 69 74
76 79 80 85 87 90 94 97 96 96 98 99 99 100 100 100 100 100 100 99 99 99 99 100 99 98 92 56 57 75 77 80 72 63 62 83 78 73
84 87 88 89 91 91 92 93 98 98 100 99 100 100 100 100 100 100 100 99 99 99 98 99 98 96 94 89 87 66 76 81 85 93 74 78 78 78
89 90 91 94 96 97 97 98 98 99 100 100 99 99 100 100 100 99 100 98 98 98 98 98 98 98 95 88 85 96 74 81 87 90 92 89 83 76
95 94 96 96 98 98 100 100 100 100 100 100 100 100 100 99 100 100 100 99 99 97 96 97 98 97 96 79 83 99 100 96 97 92 86 83 77 80
98 99 99 100 100 100 100 100 100 99 99 100 100 100 100 100 100 100 100 99 98 98 97 97 98 97 97 95 86 93 100 100 86 71 70 69 89 78
100 100 100 100 100 100 100 100 99 100 100 100 100 100 100 100 99 100 100 100 100 99 98 98 98 98 98 98 97 89 97 99 100 100 78 65 67 71
Wind_Speed
38 33 33 30 31 29 25 22 17 7 7 13 11 25 27 24 25 25 22 22 23 22 21 21 20 19 17 17 18 19 18 21 17 16 16 13 12 11
35 34 32 31 29 28 27 24 24 21 8 14 17 16 26 28 24 24 23 23 25 24 23 22 22 20 19 18 19 18 17 18 12 12 14 14 11 8
33 34 35 36 35 31 31 30 29 27 15 8 13 18 21 26 29 25 23 25 21 26 25 23 23 22 20 18 19 18 18 13 13 14 15 14 12 11
31 33 38 35 35 34 32 31 31 29 27 24 16 22 25 27 28 28 27 27 20 22 25 23 23 21 19 19 18 17 15 15 14 14 16 16 13 12
31 34 34 36 34 30 33 30 28 29 30 30 17 16 23 25 27 28 27 29 25 25 25 26 25 22 21 19 17 17 15 16 15 15 15 17 16 13
35 36 35 34 35 34 35 33 30 27 30 29 18 15 20 23 29 26 25 30 25 27 28 27 25 24 24 21 20 20 17 15 16 16 17 14 18 18
37 38 37 38 38 39 36 35 32 29 29 27 23 14 17 16 28 32 27 24 32 33 30 30 29 28 26 24 21 19 17 16 16 17 18 17 16 19
35 35 36 38 41 42 43 38 34 28 27 26 26 21 27 28 26 31 26 14 8 34 33 32 30 28 25 23 21 21 19 18 17 17 18 18 18 18
30 30 32 36 40 39 35 35 33 36 39 32 31 31 29 31 30 25 28 26 21 19 31 23 31 30 26 25 23 21 19 17 16 16 14 15 16 17
18 20 21 25 25 26 26 30 38 41 41 42 39 38 37 33 37 40 40 31 26 23 27 11 26 24 22 20 22 21 19 18 18 17 15 14 14 16
14 11 7 6 3 8 20 25 28 31 35 38 41 43 44 42 40 35 29 24 11 17 33 16 15 17 17 16 18 20 21 20 19 18 16 16 16 15
16 15 16 12 11 10 8 11 14 18 23 30 34 39 44 46 44 48 40 29 20 9 32 24 23 17 7 17 18 19 22 23 21 19 18 17 16 17
18 18 16 15 13 11 11 11 13 18 24 23 28 34 35 37 38 46 41 46 33 19 31 39 24 22 7 9 14 20 21 20 22 21 20 18 18 17
16 14 14 14 15 14 14 15 16 17 19 21 24 28 30 32 36 42 45 40 34 29 35 41 18 27 16 8 8 22 21 20 22 23 23 22 20 17
13 13 13 13 14 12 16 17 18 19 19 19 22 26 31 32 30 33 33 33 30 18 31 41 22 33 31 15 11 14 17 21 22 22 22 21 21 21
15 12 13 14 14 15 16 17 17 21 21 22 22 27 25 25 26 27 26 26 23 21 26 30 21 30 26 17 16 15 13 9 23 21 20 18 17 17
9 11 13 15 16 17 17 17 16 16 18 20 25 25 25 24 24 26 23 20 13 15 23 25 23 23 17 17 13 17 22 16 18 22 19 16 15 15
14 17 19 20 20 21 22 22 20 20 18 20 21 22 22 22 22 24 25 21 14 17 12 26 28 21 11 13 15 18 14 13 16 17 15 11 10 12
17 16 15 16 18 19 20 20 23 24 26 23 23 23 23 23 21 21 24 23 15 18 20 20 25 20 8 5 9 17 18 19 15 12 14 11 8 10
16 16 17 19 20 21 23 24 26 26 24 25 26 26 24 23 20 20 22 22 20 16 16 21 25 20 12 9 8 13 21 16 18 15 12 8 6 8
17 17 18 18 19 21 22 24 25 27 28 28 27 27 25 22 22 22 22 25 23 22 19 20 25 26 15 14 9 10 18 15 15 14 15 9 6 5
14 15 17 18 20 22 22 23 26 27 28 27 27 26 26 23 24 22 21 21 23 24 21 20 25 26 21 8 10 14 14 15 14 14 12 10 5 4
14 16 20 22 23 23 24 26 27 28 28 27 27 26 24 22 24 23 21 24 22 20 25 24 23 22 16 14 15 15 14 15 12 11 10 12 9 8
Wind_Direction
208 207 201 208 217 220 218 217 215 208 217 215 202 219 223 223 226 228 225 232 229 231 235 240 250 259 265 271 275 274 267 272 260 260 263 267 282 300
210 208 207 210 215 220 218 226 233 235 240 205 213 223 219 223 225 222 225 227 229 234 236 242 251 260 267 269 273 272 266 273 262 251 257 260 264 278
214 212 214 215 216 218 224 223 234 231 231 211 217 224 224 224 224 223 225 230 231 235 238 246 255 259 263 266 267 268 272 262 256 247 249 252 248 250
213 213 214 213 215 215 219 217 225 232 237 242 216 220 222 223 225 225 225 229 223 237 235 244 251 254 258 263 265 259 270 259 253 251 248 240 243 243
224 217 215 213 211 212 219 221 222 232 236 239 218 210 215 219 215 223 226 230 228 232 237 243 247 251 256 257 258 257 259 257 248 249 246 236 233 226
219 218 217 219 218 216 220 224 221 223 228 228 209 197 208 218 213 216 218 222 221 230 237 242 244 246 247 247 248 254 255 261 240 241 243 240 222 213
227 227 223 224 222 223 219 222 217 218 223 221 216 202 193 191 205 217 219 217 224 233 229 236 239 243 245 241 240 243 244 242 236 237 234 229 222 215
222 224 222 222 222 224 225 224 219 214 221 221 224 221 216 215 212 207 208 197 227 232 226 228 231 239 243 241 237 238 241 236 233 234 231 228 229 227
224 216 216 219 223 224 229 228 232 228 231 231 231 225 231 223 215 206 205 211 222 220 209 214 222 233 237 238 236 236 234 227 226 229 227 232 232 224
211 213 223 224 220 233 239 247 245 239 238 238 234 238 237 235 223 227 220 211 221 220 206 194 214 219 224 227 233 227 221 217 221 226 224 222 210 210
79 82 109 102 68 249 248 239 238 239 248 252 255 257 252 247 237 216 196 188 197 201 203 185 199 187 207 213 222 219 216 215 217 221 220 216 212 211
58 52 50 40 23 10 306 270 281 268 264 263 259 253 251 248 237 230 217 203 201 186 202 187 175 180 173 209 210 212 213 213 212 213 219 216 214 212
41 31 24 12 2 1 343 328 309 294 278 280 276 265 259 252 238 232 225 217 209 211 203 184 180 183 157 141 187 203 200 202 206 209 211 216 216 218
23 6 355 351 356 352 347 340 328 317 302 291 282 266 256 248 243 235 230 224 222 232 198 183 178 175 155 149 165 188 192 197 199 206 211 210 211 214
3 351 356 355 350 344 339 341 341 332 316 278 264 263 266 263 246 235 227 222 213 201 186 191 198 183 177 164 166 170 168 194 192 198 205 209 212 213
360 2 1 358 354 345 341 340 338 340 317 288 278 276 270 257 245 230 211 204 181 169 185 189 190 184 176 174 166 160 181 166 192 194 195 198 205 209
13 11 9 4 356 350 342 335 328 322 322 312 290 277 270 258 239 226 216 196 193 179 167 177 179 179 183 180 163 180 181 176 188 191 190 193 203 206
27 17 7 360 353 343 336 329 324 319 308 302 293 278 263 242 232 219 209 202 196 177 205 161 163 152 162 193 194 183 187 185 192 185 183 185 197 206
29 14 1 347 338 332 325 320 312 310 310 302 289 277 263 250 232 219 213 193 196 182 180 174 156 159 154 170 181 197 180 181 180 186 197 193 174 188
16 4 354 346 337 329 323 319 313 310 305 302 297 286 267 245 235 226 213 209 187 168 167 170 169 176 177 175 154 187 189 183 176 179 176 183 171 187
356 352 346 341 336 329 321 315 309 303 301 296 292 289 276 259 245 231 219 205 186 175 177 188 182 176 166 159 120 136 178 165 164 157 158 144 160 178
346 338 334 332 332 332 327 326 318 310 302 294 289 287 279 261 247 237 218 203 196 189 185 167 164 177 161 191 146 141 151 182 163 163 161 154 158 179
335 334 334 336 335 330 334 331 326 322 311 296 288 284 279 264 254 241 224 211 197 178 164 154 157 168 164 179 145 141 144 149 160 176 189 187 180 122